Weather History for CWWF - October, 2013

Change the Weather History Date:

Sunday, October 6, 2013

  Actual Average Record
Temperature  
Mean Temperature 46 °F -  
Max Temperature 67 °F - - ()
Min Temperature 26 °F - - ()
Degree Days  
Heating Degree Days 18    
Moisture  
Dew Point 32 °F    
Average Humidity 60    
Maximum Humidity 92    
Minimum Humidity 29    
Precipitation  
Precipitation 0.00 in - - ()
Sea Level Pressure  
Sea Level Pressure 30.01 in    
Wind  
Wind Speed 6 mph ()    
Max Wind Speed 17 mph    
Max Gust Speed 23 mph    
T = Trace of Precipitation, MM = Missing Value Source: Averaged Metar Reports

Daily Weather History Graph

Daily Weather History Graph

Search for Another Location

Airport or City:

Trip Planner

Search our weather history database for the weather conditions in past years. The results will help you decide how hot, cold, wet, or windy it might be!

Date:

Astronomy

Oct. 06, 2013 Rise Set
Actual Time 7:03 AM CST 6:22 PM CST
Civil Twilight 6:31 AM CST 6:54 PM CST
Nautical Twilight 5:53 AM CST 7:31 PM CST
Astronomical Twilight 5:16 AM CST 8:09 PM CST
Moon 9:03 AM CST 7:08 PM CST
Length of Visible Light 12h 23m
Length of Day
11h 19m
Waxing Crescent, 4% of the Moon is Illuminated
Oct 6
Waxing Crescent
Oct 11
First Quarter
Oct 18
Full
Oct 26
Last Quarter
Nov 3
New

Hourly Weather History & Observations

Time (CST) Temp. Windchill Dew Point Humidity Pressure Visibility Wind Dir Wind Speed Gust Speed Precip Events Conditions
12:00 AM 34.7 °F - 28.0 °F 77% 30.06 in - WSW 2.3 mph - N/A   Unknown
1:00 AM 35.8 °F 30.9 °F 27.9 °F 73% 30.05 in - WNW 5.8 mph - N/A   Unknown
2:00 AM 32.9 °F 29.8 °F 27.0 °F 79% 30.05 in - WNW 3.5 mph - N/A   Unknown
3:00 AM 31.3 °F 27.9 °F 26.2 °F 82% 30.04 in - NNW 3.5 mph - N/A   Unknown
4:00 AM 34.0 °F 31.0 °F 28.2 °F 79% 30.02 in - WNW 3.5 mph - N/A   Unknown
5:00 AM 29.1 °F 24.1 °F 26.2 °F 89% 30.04 in - South 4.6 mph - N/A   Unknown
6:00 AM 27 °F - 25 °F 88% 30.05 in - South 4.6 mph - -  
6:00 AM 27.1 °F 21.8 °F 24.8 °F 91% 30.05 in - South 4.6 mph - N/A   Unknown
7:00 AM 28.9 °F 22.8 °F 27.0 °F 92% 30.05 in - South 5.8 mph - N/A   Unknown
8:00 AM 34.7 °F - 30.7 °F 85% 30.04 in - South 2.3 mph - N/A   Unknown
9:00 AM 43.7 °F - 33.8 °F 68% 30.03 in - SSW 2.3 mph - N/A   Unknown
10:00 AM 50.7 °F - 36.0 °F 57% 30.01 in - WSW 4.6 mph - N/A   Unknown
11:00 AM 58.6 °F - 36.9 °F 44% 30.00 in - WNW 8.1 mph - N/A   Unknown
12:00 PM 60 °F - 38 °F 32% 30.00 in - NW 15.0 mph - -  
12:00 PM 59.9 °F - 37.8 °F 44% 30.00 in - NW 15.0 mph - N/A   Unknown
1:00 PM 62.8 °F - 36.1 °F 37% 29.99 in - NW 13.8 mph - N/A   Unknown
2:00 PM 64.2 °F - 34.5 °F 33% 29.98 in - NNW 15.0 mph 21.9 mph N/A   Unknown
3:00 PM 65.1 °F - 33.8 °F 31% 29.96 in - North 17.3 mph 23.0 mph N/A   Unknown
4:00 PM 64.8 °F - 33.8 °F 32% 29.97 in - NNW 16.1 mph 21.9 mph N/A   Unknown
5:00 PM 62.6 °F - 33.6 °F 34% 29.98 in - NW 11.5 mph - N/A   Unknown
6:00 PM 58 °F - 35 °F 29% 29.99 in - NW 10.4 mph - -  
6:00 PM 58.5 °F - 34.5 °F 41% 29.99 in - NW 10.4 mph - N/A   Unknown
7:00 PM 51.1 °F - 34.3 °F 53% 30.00 in - NW 6.9 mph - N/A   Unknown
8:00 PM 48.4 °F - 34.0 °F 58% 29.99 in - NW 4.6 mph - N/A   Unknown
9:00 PM 46.8 °F - 34.7 °F 63% 29.99 in - North 4.6 mph - N/A   Unknown
10:00 PM 47.8 °F - 34.7 °F 60% 29.97 in - NNW 2.3 mph - N/A   Unknown
11:00 PM 47.8 °F - 36.0 °F 63% 29.96 in - NE 3.5 mph - N/A   Unknown